timestamp,surface_pressure_avg,surface_temp_avg,battery_voltage,lat,long
2023-08-12 00:09:00+00:00,266.0181,17.9,12.33,47.84626,-54.09684
2023-08-12 00:19:00+00:00,261.8847,17.9,12.33,47.84626,-54.09684
2023-08-12 00:29:00+00:00,257.7381,17.9,12.33,47.84626,-54.09684
2023-08-12 00:39:00+00:00,255.7314,17.9,12.33,47.84626,-54.09684
2023-08-12 00:49:00+00:00,252.9031,17.9,12.33,47.84626,-54.09684
2023-08-12 00:59:00+00:00,250.2298,17.9,12.33,47.84626,-54.09684
2023-08-12 01:09:00+00:00,248.3314,17.9,12.33,47.84626,-54.09684
2023-08-12 01:19:00+00:00,245.8264,17.9,12.33,47.84626,-54.09684
2023-08-12 01:29:00+00:00,242.4597,17.9,12.33,47.84626,-54.09684
2023-08-12 01:39:00+00:00,241.8997,17.9,12.33,47.84626,-54.09684
2023-08-12 01:49:00+00:00,243.3981,17.9,12.33,47.84626,-54.09684
2023-08-12 01:59:00+00:00,241.4847,17.9,12.33,47.84626,-54.09684
2023-08-12 02:09:00+00:00,239.6914,17.87,12.33,47.84626,-54.09684
2023-08-12 02:19:00+00:00,241.3081,17.84,12.33,47.84626,-54.09684
2023-08-12 02:29:00+00:00,242.9564,17.84,12.33,47.84626,-54.09684
2023-08-12 02:39:00+00:00,241.1031,17.85,12.33,47.84626,-54.09684
2023-08-12 02:49:00+00:00,239.018,17.84,12.33,47.84626,-54.09684
2023-08-12 02:59:00+00:00,241.1614,17.83,12.33,47.84626,-54.09684
2023-08-12 03:09:00+00:00,239.5881,17.83,12.33,47.84626,-54.09684
2023-08-12 03:19:00+00:00,236.7198,17.86,12.33,47.84626,-54.09684
2023-08-12 03:29:00+00:00,235.3781,17.89,12.33,47.84626,-54.09684
2023-08-12 03:39:00+00:00,236.3297,17.89,12.33,47.84626,-54.09684
2023-08-12 03:49:00+00:00,237.4614,17.9,12.33,47.84626,-54.09684
2023-08-12 03:59:00+00:00,238.5731,17.9,12.33,47.84626,-54.09684
2023-08-12 04:09:00+00:00,239.0764,17.9,12.33,47.84626,-54.09684
2023-08-12 04:19:00+00:00,238.3465,17.9,12.33,47.84626,-54.09684
2023-08-12 04:29:00+00:00,243.9397,17.9,12.33,47.84626,-54.09684
2023-08-12 04:39:00+00:00,245.9131,17.9,12.33,47.84626,-54.09684
2023-08-12 04:49:00+00:00,245.9948,17.9,12.33,47.84626,-54.09684
2023-08-12 04:59:00+00:00,252.5131,17.9,12.33,47.84626,-54.09684
2023-08-12 05:09:00+00:00,262.008,17.9,12.33,47.84626,-54.09684
2023-08-12 05:19:00+00:00,262.9664,17.9,12.33,47.84626,-54.09684
2023-08-12 05:29:00+00:00,265.8297,17.9,12.33,47.84626,-54.09684
2023-08-12 05:39:00+00:00,272.3814,17.9,12.33,47.84626,-54.09684
2023-08-12 05:49:00+00:00,275.8547,17.9,12.33,47.84626,-54.09684
2023-08-12 05:59:00+00:00,278.9214,17.9,12.33,47.84626,-54.09684
2023-08-12 06:09:00+00:00,279.7997,17.9,12.33,47.84626,-54.09684
2023-08-12 06:19:00+00:00,282.5714,17.9,12.33,47.84626,-54.09684
2023-08-12 06:29:00+00:00,284.1147,17.9,12.33,47.84626,-54.09684
2023-08-12 06:39:00+00:00,290.153,17.9,12.33,47.84626,-54.09684
2023-08-12 06:49:00+00:00,292.6631,17.9,12.33,47.84626,-54.09684
2023-08-12 06:59:00+00:00,296.2648,17.9,12.33,47.84626,-54.09684
2023-08-12 07:09:00+00:00,296.2464,17.9,12.33,47.84626,-54.09684
2023-08-12 07:19:00+00:00,298.8513,17.9,12.33,47.84626,-54.09684
2023-08-12 07:29:00+00:00,301.983,17.9,12.33,47.84626,-54.09684
2023-08-12 07:39:00+00:00,304.743,17.9,12.33,47.84626,-54.09684
2023-08-12 07:49:00+00:00,303.933,17.9,12.33,47.84626,-54.09684
2023-08-12 07:59:00+00:00,307.7697,17.9,12.33,47.84626,-54.09684
2023-08-12 08:09:00+00:00,309.0297,17.9,12.33,47.84626,-54.09684
2023-08-12 08:19:01+00:00,310.8963,17.9,12.33,47.84626,-54.09684
2023-08-12 08:29:01+00:00,311.3997,17.9,12.33,47.84626,-54.09684
2023-08-12 08:39:01+00:00,314.5963,17.92,12.33,47.84626,-54.09684
2023-08-12 08:49:01+00:00,313.7664,17.93,12.33,47.84626,-54.09684
2023-08-12 08:59:01+00:00,314.6231,17.9,12.33,47.84626,-54.09684
2023-08-12 09:09:01+00:00,315.163,17.9,12.33,47.84626,-54.09684
2023-08-12 09:19:00+00:00,312.183,17.9,12.33,47.84626,-54.09684
2023-08-12 09:29:00+00:00,310.2547,17.9,12.33,47.84626,-54.09684
2023-08-12 09:39:00+00:00,310.0647,17.9,12.33,47.84626,-54.09684
2023-08-12 09:49:00+00:00,309.2246,17.9,12.33,47.84626,-54.09684
2023-08-12 09:59:00+00:00,305.4764,17.9,12.33,47.84626,-54.09684
2023-08-12 10:09:00+00:00,304.7463,17.9,12.33,47.84626,-54.09684
2023-08-12 10:19:00+00:00,303.4996,17.9,12.33,47.84626,-54.09684
2023-08-12 10:29:00+00:00,298.2631,17.9,12.33,47.84626,-54.09684
2023-08-12 10:39:00+00:00,291.908,17.9,12.33,47.84626,-54.09684
2023-08-12 10:49:00+00:00,290.093,17.9,12.33,47.84626,-54.09684
2023-08-12 10:59:00+00:00,288.6213,17.9,12.33,47.84626,-54.09684
2023-08-12 11:09:00+00:00,281.4747,17.9,12.33,47.84626,-54.09684
2023-08-12 11:19:00+00:00,275.4847,17.9,12.41,47.84626,-54.09684
2023-08-12 11:29:00+00:00,274.803,17.9,12.41,47.84626,-54.09684
2023-08-12 11:39:00+00:00,271.3114,17.9,12.41,47.84626,-54.09684
2023-08-12 11:49:00+00:00,264.5414,17.9,12.41,47.84626,-54.09684
2023-08-12 11:59:00+00:00,261.4247,17.9,12.41,47.84626,-54.09684
2023-08-12 12:09:00+00:00,258.5114,17.9,12.41,47.84626,-54.09684
2023-08-12 12:19:01+00:00,252.9997,17.9,12.41,47.84626,-54.09684
2023-08-12 12:29:01+00:00,248.3781,17.9,12.41,47.84626,-54.09684
2023-08-12 12:39:01+00:00,245.5714,17.9,12.41,47.84626,-54.09684
2023-08-12 12:49:01+00:00,245.6031,17.9,12.41,47.84626,-54.09684
2023-08-12 12:59:01+00:00,244.9581,17.9,12.41,47.84626,-54.09684
2023-08-12 13:09:01+00:00,242.9648,17.9,12.41,47.84626,-54.09684
2023-08-12 13:19:00+00:00,239.6614,17.93,12.73,47.84626,-54.09684
2023-08-12 13:29:00+00:00,238.8264,17.94,12.73,47.84626,-54.09684
2023-08-12 13:39:00+00:00,237.7214,17.95,12.73,47.84626,-54.09684
2023-08-12 13:49:00+00:00,233.4431,17.98,12.73,47.84626,-54.09684
2023-08-12 13:59:00+00:00,230.4298,18.0,12.73,47.84626,-54.09684
2023-08-12 14:09:00+00:00,229.6214,18.0,12.73,47.84626,-54.09684
2023-08-12 14:19:00+00:00,229.5214,17.9,12.73,47.84626,-54.09684
2023-08-12 14:29:00+00:00,227.5131,17.9,12.73,47.84626,-54.09684
2023-08-12 14:39:00+00:00,228.8897,17.95,12.73,47.84626,-54.09684
2023-08-12 14:49:00+00:00,230.7864,18.0,12.73,47.84626,-54.09684
2023-08-12 14:59:00+00:00,231.7748,18.03,12.73,47.84626,-54.09684
2023-08-12 15:09:00+00:00,234.2348,18.02,12.73,47.84626,-54.09684
2023-08-12 15:19:00+00:00,237.5681,18.07,12.73,47.84626,-54.09684
2023-08-12 15:29:00+00:00,239.1115,18.09,12.73,47.84626,-54.09684
2023-08-12 15:39:00+00:00,237.9948,18.1,12.73,47.84626,-54.09684
2023-08-12 15:49:00+00:00,240.8181,18.1,12.73,47.84626,-54.09684
2023-08-12 15:59:00+00:00,244.8598,18.0,12.73,47.84626,-54.09684
2023-08-12 16:09:00+00:00,245.3714,18.0,12.73,47.84626,-54.09684
2023-08-12 16:19:00+00:00,243.1281,18.0,12.65,47.84626,-54.09684
2023-08-12 16:29:00+00:00,243.5947,18.0,12.65,47.84626,-54.09684
2023-08-12 16:39:00+00:00,246.3998,18.0,12.65,47.84626,-54.09684
2023-08-12 16:49:00+00:00,246.1914,18.02,12.65,47.84626,-54.09684
2023-08-12 16:59:00+00:00,245.8864,18.1,12.65,47.84626,-54.09684
2023-08-12 17:09:00+00:00,248.8581,18.1,12.65,47.84626,-54.09684
2023-08-12 17:19:00+00:00,253.0397,18.1,12.57,47.84626,-54.09684
2023-08-12 17:29:00+00:00,254.3964,18.1,12.57,47.84626,-54.09684
2023-08-12 17:39:00+00:00,255.8214,18.09,12.57,47.84626,-54.09684
2023-08-12 17:49:00+00:00,258.7964,18.1,12.57,47.84626,-54.09684
2023-08-12 17:59:00+00:00,262.9347,18.1,12.57,47.84626,-54.09684
2023-08-12 18:09:00+00:00,266.898,18.1,12.57,47.84626,-54.09684
2023-08-12 18:19:00+00:00,272.6497,18.1,12.65,47.84626,-54.09684
2023-08-12 18:29:00+00:00,278.5414,18.1,12.65,47.84626,-54.09684
2023-08-12 18:39:00+00:00,284.6897,18.1,12.65,47.84626,-54.09684
2023-08-12 18:49:00+00:00,288.043,18.1,12.65,47.84626,-54.09684
2023-08-12 18:59:00+00:00,293.8947,18.1,12.65,47.84626,-54.09684
2023-08-12 19:09:00+00:00,298.5297,18.1,12.65,47.84626,-54.09684
2023-08-12 19:19:00+00:00,300.1097,18.1,12.57,47.84626,-54.09684
2023-08-12 19:29:00+00:00,304.1263,18.1,12.57,47.84626,-54.09684
2023-08-12 19:39:00+00:00,309.403,18.1,12.57,47.84626,-54.09684
2023-08-12 19:49:00+00:00,311.9464,18.1,12.57,47.84626,-54.09684
2023-08-12 19:59:00+00:00,314.7947,18.1,12.57,47.84626,-54.09684
2023-08-12 20:09:00+00:00,324.338,18.1,12.57,47.84626,-54.09684
2023-08-12 20:19:00+00:00,328.788,18.1,12.49,47.84626,-54.09684
2023-08-12 20:29:00+00:00,330.5847,18.1,12.49,47.84626,-54.09684
2023-08-12 20:39:00+00:00,335.8796,18.1,12.49,47.84626,-54.09684
2023-08-12 20:49:00+00:00,340.8796,18.1,12.49,47.84626,-54.09684
2023-08-12 20:59:00+00:00,340.3079,18.1,12.49,47.84626,-54.09684
2023-08-12 21:09:00+00:00,343.5764,18.1,12.49,47.84626,-54.09684
2023-08-12 21:19:00+00:00,348.2729,18.1,12.49,47.84626,-54.09684
2023-08-12 21:29:00+00:00,350.2346,18.04,12.49,47.84626,-54.09684
2023-08-12 21:39:00+00:00,348.9346,18.0,12.49,47.84626,-54.09684
2023-08-12 21:49:00+00:00,353.533,18.0,12.49,47.84626,-54.09684
2023-08-12 21:59:00+00:00,352.4113,18.0,12.49,47.84626,-54.09684
2023-08-12 22:09:00+00:00,348.2946,18.0,12.49,47.84626,-54.09684
2023-08-12 22:19:00+00:00,349.1296,17.94,12.41,47.84626,-54.09684
2023-08-12 22:29:00+00:00,349.6179,17.9,12.41,47.84626,-54.09684
2023-08-12 22:39:00+00:00,345.1296,17.9,12.41,47.84626,-54.09684
2023-08-12 22:49:00+00:00,338.2047,17.9,12.41,47.84626,-54.09684
2023-08-12 22:59:00+00:00,330.8063,17.9,12.41,47.84626,-54.09684
2023-08-12 23:09:00+00:00,326.3296,17.9,12.41,47.84626,-54.09684
2023-08-12 23:19:00+00:00,318.6713,17.9,12.41,47.84626,-54.09684
2023-08-12 23:29:00+00:00,313.218,17.9,12.41,47.84626,-54.09684
2023-08-12 23:39:00+00:00,308.39799999999997,17.9,12.41,47.84626,-54.09684
2023-08-12 23:49:00+00:00,302.908,17.99,12.41,47.84626,-54.09684
2023-08-12 23:59:00+00:00,295.3264,18.0,12.41,47.84626,-54.09684
